GMT,Max TemperatureF,Mean TemperatureF,Min TemperatureF,Max Dew PointF,MeanDew PointF,Min DewpointF,Max Humidity, Mean Humidity, Min Humidity, Max Sea Level PressureIn, Mean Sea Level PressureIn, Min Sea Level PressureIn, Max VisibilityMiles, Mean VisibilityMiles, Min VisibilityMiles, Max Wind SpeedMPH, Mean Wind SpeedMPH, Max Gust SpeedMPH,PrecipitationIn, CloudCover, Events, WindDirDegrees
2012-2-1,39,34,30,27,22,16,80,64,41,30.57,30.49,30.39,6,6,4,17,11,28,0.00,4,,56
2012-2-2,35,30,26,19,16,10,74,57,35,30.66,30.59,30.57,6,6,6,16,9,25,0.00,1,,48
2012-2-3,35,29,23,23,20,18,86,69,52,30.71,30.69,30.66,6,6,6,7,5,,0.00,3,,347
2012-2-4,35,28,21,32,24,18,100,83,69,30.69,30.57,30.24,6,4,0,14,5,,0.00,6,Snow,172
2012-2-5,35,34,32,34,32,32,100,93,87,30.45,30.34,30.18,6,4,1,8,4,,0.00,6,Snow,284
2012-2-6,41,37,33,37,35,34,100,90,81,30.60,30.51,30.45,4,2,1,7,3,,0.00,6,Fog,347
2012-2-7,39,32,26,34,26,16,93,74,52,30.80,30.71,30.60,6,5,2,14,5,,0.00,4,Rain-Snow,62
2012-2-8,33,30,26,27,24,19,80,74,69,30.77,30.73,30.71,6,6,6,10,8,,0.00,7,,45
2012-2-9,33,32,30,30,26,25,93,78,70,30.74,30.69,30.66,6,5,0,7,4,,0.00,6,Snow,76
2012-2-10,35,30,26,30,25,19,100,80,60,30.69,30.65,30.63,6,4,1,12,6,,0.00,5,Snow,103
2012-2-11,35,27,19,25,21,16,93,78,60,30.63,30.62,30.60,6,4,3,5,3,,0.00,1,,4
2012-2-12,41,31,21,36,29,18,93,85,80,30.63,30.55,30.51,6,4,1,7,4,,0.00,6,Rain,302
2012-2-13,44,38,33,39,36,32,100,85,71,30.54,30.33,30.21,6,4,0,14,7,,0.00,5,Rain,301
2012-2-14,48,44,39,39,35,32,81,72,62,30.33,30.26,30.21,6,6,6,10,8,21,0.00,3,,326
2012-2-15,51,48,44,39,38,36,81,69,54,30.36,30.29,30.21,6,6,6,15,11,24,0.00,4,Rain,319
2012-2-16,51,44,37,39,37,34,87,71,54,30.39,30.34,30.30,6,6,6,15,8,,0.00,3,,285
2012-2-17,53,48,42,46,43,39,93,81,72,30.30,30.20,30.09,6,6,5,18,9,,0.00,4,,260
2012-2-18,51,44,37,45,38,30,87,74,58,30.06,29.90,29.74,6,6,2,23,15,32,0.00,5,Rain,256
2012-2-19,44,38,32,30,26,19,81,63,42,30.48,30.27,30.01,6,6,6,12,9,,0.00,2,,306
2012-2-20,48,37,26,36,28,25,93,70,43,30.51,30.47,30.42,6,6,6,16,5,,0.00,2,,220
2012-2-21,53,47,41,41,39,36,81,71,54,30.42,30.38,30.36,6,6,6,18,11,,0.00,6,,242
2012-2-22,51,48,46,48,42,39,94,81,66,30.39,30.22,30.09,6,6,2,23,15,34,0.00,6,Rain,226
2012-2-23,62,56,50,52,49,45,94,81,63,30.30,30.22,30.09,6,6,6,18,12,,0.00,4,,262
2012-2-24,57,52,48,46,46,45,87,81,67,30.39,30.34,30.30,6,6,5,17,12,,0.00,5,,266
2012-2-25,53,48,42,41,37,36,81,65,54,30.39,30.34,30.30,6,6,6,14,5,,0.00,4,,311
2012-2-26,55,45,35,41,37,32,93,74,54,30.39,30.37,30.33,6,6,6,10,4,,0.00,2,,258
2012-2-27,51,46,42,45,43,37,93,81,76,30.33,30.26,30.21,6,6,4,15,9,,0.00,6,Rain,249
2012-2-28,55,52,50,48,47,45,88,84,77,30.27,30.24,30.21,6,5,2,10,8,,0.00,6,,271
2012-2-29,55,52,48,48,46,43,93,83,72,30.27,30.26,30.24,6,4,3,9,6,,0.00,4,,224